30.06.2024;16:00;3
30.06.2024;15:00;3
30.06.2024;14:00;2
30.06.2024;13:00;4
30.06.2024;12:00;4
30.06.2024;11:00;5
30.06.2024;10:00;6
30.06.2024;09:00;7
30.06.2024;08:00;12
30.06.2024;07:00;23
30.06.2024;06:00;21
30.06.2024;05:00;20
30.06.2024;04:00;26
30.06.2024;03:00;30
30.06.2024;02:00;28
30.06.2024;01:00;27
29.06.2024;24:00;23
29.06.2024;23:00;21
29.06.2024;22:00;25
29.06.2024;21:00;28
29.06.2024;20:00;26
29.06.2024;19:00;24
29.06.2024;18:00;24
29.06.2024;17:00;22
29.06.2024;16:00;21
29.06.2024;15:00;20
29.06.2024;14:00;23
29.06.2024;13:00;21
29.06.2024;12:00;19
29.06.2024;11:00;14
29.06.2024;10:00;16
29.06.2024;09:00;22
29.06.2024;08:00;25
29.06.2024;07:00;21
29.06.2024;06:00;18
29.06.2024;05:00;19
29.06.2024;04:00;20
29.06.2024;03:00;20
29.06.2024;02:00;20
29.06.2024;01:00;18
28.06.2024;24:00;18
28.06.2024;23:00;17
28.06.2024;22:00;15
28.06.2024;21:00;15
28.06.2024;20:00;17
28.06.2024;19:00;18
28.06.2024;18:00;17
28.06.2024;17:00;14
28.06.2024;16:00;17
28.06.2024;15:00;15
28.06.2024;14:00;16
28.06.2024;13:00;16
28.06.2024;12:00;18
28.06.2024;11:00;14
28.06.2024;10:00;11
28.06.2024;09:00;12
28.06.2024;08:00;18
28.06.2024;07:00;16
28.06.2024;06:00;14
28.06.2024;05:00;18
28.06.2024;04:00;19
28.06.2024;03:00;14
28.06.2024;02:00;13
28.06.2024;01:00;15
27.06.2024;24:00;14
27.06.2024;23:00;15
27.06.2024;22:00;17
27.06.2024;21:00;18
27.06.2024;20:00;19
27.06.2024;19:00;18
27.06.2024;18:00;20
27.06.2024;17:00;21
27.06.2024;16:00;20
27.06.2024;15:00;16
27.06.2024;14:00;16
27.06.2024;13:00;20
27.06.2024;12:00;20
27.06.2024;11:00;15
27.06.2024;10:00;14
27.06.2024;09:00;17
27.06.2024;08:00;19
27.06.2024;07:00;24
27.06.2024;06:00;29
27.06.2024;05:00;27
27.06.2024;04:00;23
27.06.2024;03:00;18
27.06.2024;02:00;19
27.06.2024;01:00;22
26.06.2024;24:00;23
26.06.2024;23:00;18
26.06.2024;22:00;18
26.06.2024;21:00;14
26.06.2024;20:00;17
26.06.2024;19:00;19
26.06.2024;18:00;22
26.06.2024;17:00;19
26.06.2024;16:00;18
26.06.2024;15:00;20
26.06.2024;14:00;22
26.06.2024;13:00;23
26.06.2024;12:00;21
26.06.2024;11:00;23
26.06.2024;10:00;21
26.06.2024;09:00;23
26.06.2024;08:00;25
26.06.2024;07:00;26
26.06.2024;06:00;25
26.06.2024;05:00;24
26.06.2024;04:00;23
26.06.2024;03:00;24
26.06.2024;02:00;23
26.06.2024;01:00;22
25.06.2024;24:00;21
25.06.2024;23:00;22
25.06.2024;22:00;22
25.06.2024;21:00;20
25.06.2024;20:00;18
25.06.2024;19:00;16
25.06.2024;18:00;14
25.06.2024;17:00;12
25.06.2024;16:00;11
25.06.2024;15:00;11
25.06.2024;14:00;12
25.06.2024;13:00;13
25.06.2024;12:00;14
25.06.2024;11:00;17
25.06.2024;10:00;17
25.06.2024;09:00;17
25.06.2024;08:00;17
25.06.2024;07:00;19
25.06.2024;06:00;19
25.06.2024;05:00;18
25.06.2024;04:00;17
25.06.2024;03:00;16
25.06.2024;02:00;16
25.06.2024;01:00;15
